User: anonymous   Login
Location: Demmingen
(48.6757°N, 10.4375°E)
Time: 13:34:46
(UTC+00:00)
Language:

Cosmos 468 Rocket - Orbit

View from above orbital plane
View from above orbital plane
View from above satellite
View from above satellite

Ground track
Ground track

The orbit data is extracted from the following two-line orbital elements,

1 05707U 71114B   24195.91542831  .00000679  00000-0  22444-3 0  9998
2 05707  74.0283 357.4873 0024118 156.5247 203.7015 14.39706878754229
Epoch (UTC): 13 July 2024 21:58:13
Eccentricity: 0.0024118
inclination: 74.0283°
perigee height: 742 km
apogee height: 776 km
right ascension of ascending node: 357.4873°
argument of perigee: 156.5247°
revolutions per day: 14.39706878
mean anomaly at epoch: 203.7015°
orbit number at epoch: 75422

The dashed part of the orbit path shows where the satellite is in the earth's shadow,  

DLR